[[{"header":{"parameterUnit":"m.s-1","parameterCategory":1,"la1":30.2991,"la2":30.254,"lo1":-89.0895,"lo2":-89.0444,"dy":0.0017,"dx":0.0017,"nx":28,"ny":28,"refTime":"2025-03-30T03:00:00:Z","depth":0,"parameterNumber":2,"parameterNumberName":"U-component_of_WINDS"},"data":[0,0,0,0,0,0,0,0,0,0,0,0,0,0,0,0,0,0,0,0,0,0,0,0,0,0,0,0,0,0,0,0,0,0,0,0,0,0,0,0,0,0,0,0,0,0,0,0,0,0,0,0,0,0,0,0,0,0,-2.3932,-2.3933,0,-2.4011,-2.4012,-2.4013,-2.4035,-2.4034,-2.4034,-2.4034,-2.4113,-2.4116,-2.4118,0,0,0,0,0,0,0,0,0,0,0,0,0,-2.3799,-2.3802,-2.3932,-2.3933,-2.3934,-2.4011,-2.4012,-2.4013,-2.4035,-2.4034,-2.4034,-2.4033,-2.4113,-2.4116,-2.4119,0,0,0,0,0,0,0,0,0,0,0,0,0,-2.3866,-2.3803,-2.3932,-2.3954,-2.3957,-2.4011,-2.4012,-2.4013,-2.4035,-2.4034,-2.4034,-2.4033,-2.4112,-2.4115,-2.4119,-2.4156,0,0,-2.4131,-2.4132,0,0,0,0,0,0,0,0,-2.3862,-2.387,-2.395,-2.3953,-2.3956,-2.4013,-2.3995,-2.4061,-2.4035,-2.4005,-2.4034,-2.4033,-2.408,-2.4087,-2.4103,-2.4159,-2.4163,-2.4131,-2.4133,-2.4135,-2.4136,0,0,0,0,0,0,0,-2.3857,-2.3867,-2.3963,-2.3951,-2.3955,-2.396,-2.3969,-2.4007,-2.4046,-2.4008,-2.401,-2.4019,-2.4082,-2.4099,-2.4105,-2.4164,-2.4131,-2.4134,-2.4137,-2.4138,-2.4255,-2.4256,0,0,0,0,0,0,-2.3849,-2.3863,-2.3961,-2.3966,-2.3906,-2.3963,-2.3973,-2.3995,-2.4045,-2.4052,-2.4019,-2.402,-2.4093,-2.41,-2.4108,-2.4154,-2.4135,-2.4138,-2.4141,-2.4254,-2.4255,-2.4256,0,0,0,0,0,0,-2.3846,-2.3857,-2.3958,-2.3915,-2.3928,-2.3966,-2.3991,-2.3997,-2.4014,-2.4054,-2.4061,-2.403,-2.4093,-2.4102,-2.4144,-2.4157,-2.414,-2.4144,-2.4253,-2.4254,-2.4256,-2.4246,0,0,0,0,0,0,-2.3842,-2.3856,-2.3871,-2.3915,-2.393,-2.3992,-2.3992,-2.3999,-2.4021,-2.4022,-2.4066,-2.4072,-2.4093,-2.4138,-2.4148,-2.4162,-2.4147,-2.4252,-2.4254,-2.4255,-2.4245,-2.4247,-2.4248,0,0,0,0,0,-2.3837,-2.3864,-2.3871,-2.3883,-2.3949,-2.3993,-2.4002,-2.4025,-2.4022,-2.4036,-2.4062,-2.4071,-2.4154,-2.4142,-2.4153,-2.4168,-2.4251,-2.4253,-2.4255,-2.4245,-2.4246,-2.4248,0,0,0,0,0,0,-2.382,-2.3871,-2.3879,-2.3921,-2.3953,-2.3997,-2.4016,-2.4026,-2.4059,-2.4059,-2.4086,-2.4096,-2.4135,-2.4156,-2.4142,-2.4207,-2.4203,-2.4207,-2.4191,-2.4193,-2.4195,-2.4188,-2.415,0,0,0,0,0,-2.3821,-2.3853,-2.3895,-2.3929,-2.3944,-2.3977,-2.3997,-2.4013,-2.4046,-2.406,-2.4088,-2.412,-2.4154,-2.4175,-2.4208,-2.4249,-2.4259,-2.4265,-2.4267,-2.4268,-2.427,-2.4293,-2.4297,-2.4262,-2.4262,-2.4262,0,0,-2.3823,-2.3855,-2.3873,-2.3926,-2.3952,-2.3984,-2.3988,-2.4022,-2.4045,-2.4065,-2.4105,-2.4127,-2.4165,-2.4206,-2.4226,-2.4225,-2.4282,-2.427,-2.427,-2.4273,-2.4296,-2.4299,-2.4302,-2.4263,-2.4263,-2.4263,0,0,-2.3844,-2.3872,-2.3902,-2.3929,-2.3969,-2.3991,-2.3998,-2.4041,-2.4056,-2.4098,-2.4113,-2.4142,-2.4199,-2.4225,-2.4246,-2.4277,-2.4287,-2.4288,-2.4294,-2.4316,-2.4319,-2.4321,-2.4332,-2.4336,-2.429,-2.429,-2.429,0,-2.3842,-2.3891,-2.3917,-2.3949,-2.3972,-2.3992,-2.4023,-2.4047,-2.4096,-2.4111,-2.4109,-2.4182,-2.4208,-2.4256,-2.4264,-2.428,-2.4289,-2.4282,-2.4317,-2.4319,-2.4322,-2.4333,-2.4337,-2.429,-2.429,-2.429,-2.429,0,-2.3886,-2.3919,-2.394,-2.3986,-2.4011,-2.4043,-2.4074,-2.4096,-2.411,-2.4132,-2.4174,-2.4207,-2.4247,-2.426,-2.4273,-2.4309,-2.4308,-2.4311,-2.4308,-2.4325,-2.4335,-2.4339,-2.429,-2.429,-2.429,-2.429,0,0,-2.3896,-2.3958,-2.3964,-2.3986,-2.4032,-2.4058,-2.4091,-2.4131,-2.4149,-2.4182,-2.421,-2.4259,-2.4262,-2.4286,-2.4303,-2.4323,-2.4345,-2.4324,-2.4325,-2.4326,-2.4386,-2.4382,-2.4387,-2.4352,-2.4353,-2.4354,-2.4383,0,-2.3922,-2.3981,-2.4006,-2.4054,-2.4085,-2.4105,-2.4133,-2.4165,-2.4187,-2.4216,-2.4241,-2.4274,-2.4277,-2.4291,-2.4312,-2.4338,-2.4357,-2.4336,-2.4378,-2.4379,-2.4366,-2.4392,-2.4388,-2.4414,-2.4387,-2.4388,-2.4388,0,-2.3959,-2.3993,-2.4044,-2.4086,-2.41,-2.4126,-2.4164,-2.4192,-2.4228,-2.4243,-2.427,-2.4286,-2.4321,-2.4317,-2.4365,-2.435,-2.4369,-2.4385,-2.4386,-2.439,-2.4383,-2.4395,-2.4423,-2.4426,-2.4395,-2.4394,-2.4394,0,-2.396,-2.4019,-2.4057,-2.4075,-2.4125,-2.4143,-2.4164,-2.42,-2.4222,-2.4256,-2.4271,-2.4308,-2.4328,-2.4357,-2.4383,-2.4377,-2.4429,-2.4427,-2.4441,-2.4441,-2.445,-2.4449,-2.448,-2.4464,-2.4464,-2.4464,-2.4464,0,-2.3985,-2.4016,-2.4058,-2.4081,-2.4116,-2.4144,-2.4177,-2.4201,-2.4232,-2.426,-2.428,-2.4306,-2.4339,-2.437,-2.439,-2.4427,-2.4436,-2.4449,-2.4454,-2.4446,-2.4445,-2.4458,-2.4456,-2.4465,-2.4465,-2.4465,-2.4465,0,-2.3992,-2.4021,-2.4064,-2.4109,-2.4121,-2.4144,-2.4183,-2.4206,-2.423,-2.4265,-2.4275,-2.4311,-2.4348,-2.4377,-2.4425,-2.4439,-2.4477,-2.4483,-2.4465,-2.4467,-2.448,-2.4478,-2.452,-2.4526,-2.4507,-2.4507,-2.4508,0,-2.4005,-2.4029,-2.4077,-2.4097,-2.4119,-2.4151,-2.4175,-2.4204,-2.4227,-2.427,-2.4288,-2.4327,-2.4358,-2.4416,-2.4447,-2.4484,-2.449,-2.4502,-2.4496,-2.4487,-2.4489,-2.4487,-2.4489,-2.4502,-2.4502,-2.4502,-2.4502,0,-2.4026,-2.4039,-2.4072,-2.411,-2.4137,-2.4168,-2.42,-2.4215,-2.425,-2.4276,-2.4313,-2.4338,-2.4387,-2.4425,-2.4465,-2.4488,-2.4501,-2.4505,-2.451,-2.4502,-2.449,-2.4496,-2.4466,-2.4503,-2.4503,-2.4503,-2.4503,-2.4503,-2.4036,-2.4058,-2.4095,-2.413,-2.4157,-2.4187,-2.4211,-2.4237,-2.427,-2.4312,-2.4328,-2.4366,-2.4402,-2.4458,-2.4481,-2.4511,-2.4512,-2.452,-2.4522,-2.4523,-2.4522,-2.4486,-2.4519,-2.4519,-2.4519,-2.4519,-2.4519,0,-2.4056,-2.4081,-2.4114,-2.4158,-2.4186,-2.4197,-2.4232,-2.4255,-2.4289,-2.4322,-2.4353,-2.4397,-2.4433,-2.4468,-2.4506,-2.4524,-2.4531,-2.4533,-2.4531,-2.4536,-2.4519,-2.451,-2.4527,-2.4527,-2.4527,-2.4527,-2.4527,-2.4527,-2.407,-2.4108,-2.4126,-2.4177,-2.4202,-2.4241,-2.426,-2.4287,-2.4313,-2.4361,-2.4392,-2.4414,-2.4448,-2.4489,-2.4523,-2.4532,-2.4545,-2.4545,-2.4556,-2.4539,-2.4537,-2.4536,-2.4528,-2.4548,-2.4548,-2.457,-2.457,-2.4571]},{"header":{"parameterUnit":"m.s-1","parameterCategory":1,"la1":30.2991,"la2":30.254,"lo1":-89.0895,"lo2":-89.0444,"dy":0.0017,"dx":0.0017,"nx":28,"ny":28,"refTime":"2025-03-30T03:00:00:Z","depth":0,"parameterNumber":3,"parameterNumberName":"V-component_of_WINDS"},"data":[0,0,0,0,0,0,0,0,0,0,0,0,0,0,0,0,0,0,0,0,0,0,0,0,0,0,0,0,0,0,0,0,0,0,0,0,0,0,0,0,0,0,0,0,0,0,0,0,0,0,0,0,0,0,0,0,0,0,3.557,3.5569,0,3.5533,3.5533,3.5532,3.5488,3.5488,3.5487,3.5486,3.5446,3.5446,3.5445,0,0,0,0,0,0,0,0,0,0,0,0,0,3.5601,3.5601,3.557,3.5569,3.5569,3.5533,3.5533,3.5532,3.5488,3.5488,3.5487,3.5486,3.5446,3.5446,3.5445,0,0,0,0,0,0,0,0,0,0,0,0,0,3.5578,3.56,3.557,3.5543,3.554,3.5533,3.5533,3.5532,3.5489,3.5488,3.5487,3.5486,3.5446,3.5446,3.5445,3.5461,0,0,3.5443,3.5443,0,0,0,0,0,0,0,0,3.558,3.5577,3.5547,3.5545,3.5541,3.5514,3.5529,3.5508,3.5489,3.5508,3.5486,3.5485,3.5469,3.5467,3.5462,3.5459,3.5458,3.5443,3.5443,3.5442,3.5442,0,0,0,0,0,0,0,3.5581,3.5578,3.5555,3.5547,3.5543,3.5532,3.5528,3.5525,3.5495,3.5506,3.5503,3.5499,3.5468,3.5463,3.5461,3.5457,3.5443,3.5443,3.5442,3.5442,3.5469,3.547,0,0,0,0,0,0,3.5587,3.558,3.5556,3.5554,3.5559,3.5533,3.5528,3.5524,3.5495,3.5489,3.55,3.5498,3.5464,3.5462,3.5459,3.5478,3.5442,3.5442,3.5441,3.5468,3.5469,3.547,0,0,0,0,0,0,3.5588,3.5585,3.5558,3.5566,3.5562,3.5533,3.5529,3.5524,3.5519,3.549,3.5484,3.5501,3.5464,3.546,3.5462,3.5476,3.5441,3.5441,3.5467,3.5468,3.547,3.5516,0,0,0,0,0,0,3.5589,3.5586,3.5592,3.5567,3.5562,3.5561,3.553,3.5524,3.5518,3.5514,3.5489,3.5484,3.5463,3.5463,3.5461,3.5475,3.544,3.5465,3.5467,3.5469,3.5513,3.5519,3.5524,0,0,0,0,0,3.559,3.5605,3.5592,3.559,3.5568,3.5562,3.5559,3.5535,3.552,3.5525,3.5507,3.5485,3.5475,3.5464,3.5461,3.5475,3.5464,3.5467,3.5469,3.551,3.5517,3.5524,0,0,0,0,0,0,3.563,3.5601,3.5587,3.5594,3.5581,3.5555,3.5561,3.5543,3.5534,3.553,3.5499,3.5494,3.55,3.5487,3.5475,3.549,3.5466,3.5469,3.5499,3.5505,3.5511,3.5514,3.544,0,0,0,0,0,3.5641,3.5639,3.5613,3.5621,3.5616,3.559,3.5586,3.5569,3.5554,3.5548,3.553,3.5516,3.551,3.5507,3.5499,3.5511,3.5506,3.5519,3.5524,3.5529,3.5531,3.5539,3.5545,3.5479,3.5479,3.5479,0,0,3.566,3.5644,3.5644,3.5629,3.5617,3.5616,3.5586,3.5585,3.5584,3.5548,3.5549,3.5536,3.5518,3.5526,3.5528,3.5515,3.5549,3.5532,3.5536,3.5536,3.5542,3.5549,3.5554,3.548,3.548,3.548,0,0,3.5697,3.5684,3.5691,3.5681,3.5664,3.5647,3.5649,3.5626,3.5616,3.5618,3.5591,3.559,3.5579,3.5569,3.5562,3.5598,3.5578,3.5596,3.5625,3.5633,3.5638,3.5643,3.5658,3.5663,3.5599,3.5599,3.5599,0,3.5724,3.5722,3.5697,3.5699,3.5694,3.5663,3.567,3.5661,3.5642,3.5639,3.5626,3.5614,3.56,3.5606,3.5615,3.561,3.5612,3.5599,3.564,3.5644,3.5648,3.5662,3.5667,3.5601,3.5601,3.5601,3.5601,0,3.5757,3.5756,3.5763,3.5749,3.5744,3.5749,3.5725,3.5723,3.5707,3.5692,3.5695,3.5677,3.5667,3.5667,3.565,3.5671,3.5664,3.5645,3.5621,3.5657,3.567,3.5675,3.5605,3.5604,3.5603,3.5603,0,0,3.5816,3.5789,3.5793,3.5787,3.5767,3.5766,3.577,3.5762,3.5762,3.5751,3.5754,3.5748,3.5731,3.5724,3.5706,3.5712,3.5745,3.5693,3.5692,3.5705,3.577,3.5785,3.5791,3.5731,3.5732,3.5733,3.5772,0,3.585,3.5856,3.5835,3.5847,3.5847,3.5819,3.5823,3.5811,3.5798,3.5796,3.578,3.5777,3.5755,3.5751,3.5756,3.574,3.5758,3.5736,3.5735,3.5735,3.5742,3.5797,3.5813,3.5851,3.5776,3.5777,3.5778,0,3.589,3.5884,3.5896,3.5879,3.5878,3.5882,3.5874,3.5872,3.5859,3.5849,3.5843,3.5822,3.5826,3.5803,3.5808,3.5794,3.5792,3.5784,3.5785,3.5785,3.5759,3.58,3.5862,3.5868,3.5785,3.5784,3.5784,0,3.5935,3.5929,3.5936,3.5932,3.5911,3.5915,3.5906,3.5893,3.589,3.5883,3.5881,3.5874,3.587,3.5865,3.5844,3.5829,3.5853,3.5827,3.5845,3.5846,3.5852,3.5852,3.5916,3.5849,3.5849,3.5849,3.5849,0,3.5976,3.5985,3.5957,3.5961,3.5971,3.5947,3.5958,3.5946,3.5935,3.5937,3.5911,3.5914,3.5886,3.5885,3.5869,3.5877,3.5875,3.5867,3.5863,3.587,3.5872,3.5869,3.5867,3.585,3.585,3.585,3.5849,0,3.6028,3.6009,3.6015,3.5996,3.5992,3.6,3.5984,3.5988,3.5973,3.5977,3.5976,3.5954,3.5952,3.5931,3.5924,3.5913,3.5929,3.5919,3.5934,3.5931,3.5951,3.5951,3.6017,3.6025,3.5952,3.5952,3.5953,0,3.6056,3.6063,3.6045,3.6046,3.6039,3.6039,3.6037,3.6014,3.6013,3.6001,3.6006,3.6003,3.6,3.5999,3.5982,3.5978,3.5968,3.5992,3.5967,3.5976,3.5971,3.5972,3.5973,3.5997,3.5998,3.5999,3.6,0,3.6108,3.6099,3.6097,3.6094,3.6092,3.6087,3.6081,3.6082,3.6057,3.6057,3.6057,3.6054,3.6049,3.6047,3.604,3.6031,3.6012,3.6008,3.6012,3.602,3.603,3.6027,3.595,3.6006,3.6006,3.6005,3.6005,3.6005,3.615,3.6156,3.6145,3.6145,3.6138,3.6134,3.6137,3.6125,3.6124,3.6119,3.6105,3.6107,3.6096,3.6085,3.6079,3.608,3.6068,3.6074,3.6076,3.6078,3.6083,3.6029,3.6079,3.6078,3.6078,3.6078,3.6078,0,3.6203,3.6195,3.6195,3.6189,3.6189,3.6172,3.6164,3.6166,3.6168,3.616,3.6158,3.6159,3.6157,3.6141,3.6138,3.6143,3.6134,3.6143,3.6143,3.6142,3.6093,3.609,3.615,3.615,3.615,3.615,3.615,3.615,3.623,3.624,3.6231,3.6238,3.623,3.6233,3.623,3.6226,3.622,3.6223,3.6222,3.6212,3.6201,3.6198,3.6196,3.6191,3.6192,3.6204,3.6197,3.6152,3.6145,3.6138,3.6136,3.6204,3.6204,3.6246,3.6247,3.6247]}]]